Location: Gazon
(48.1318°N, 1.2708°W)
Time: 23:21:59
(UTC+00:00)

Cosmos 1544 - Pass Details

Date: 18 September 2020
Orbit: 471 x 491 km, 82.5° (Epoch: 25 October)

Event Time Altitude Azimuth Distance (km) Brightness Sun altitude
Rises 18:54:18 0° 197° (SSW) 2,555 6.8 -8.1°
Reaches altitude 10° 18:56:25 10° 201° (SSW) 1,676 5.9 -8.4°
Maximum altitude 19:00:03 59° 282° (WNW) 570 3.8 -9.0°
Drops below altitude 10° 19:03:41 10° 2° (N) 1,681 5.9 -9.6°
Sets 19:05:49 0° 7° (N) 2,563 6.8 -10.0°
